,,Stat6,,Stat2,,Stat8,,Stat9,,Stat10,,Wind1,,Wind1,
time,status,PA1M_AVG,status,PR1M_SUM,status,RH1M_AVG,status,SR1M_AVG,status,TA1M_AVG,status,W1dAve1m,status,W1sAve1m,
2009-04-19, 00:00:00,VALID,919.304,VALID,0,VALID,100,VALID,-0.0509425,VALID,19.6866,VALID,152,VALID,0,
2009-04-19, 00:01:00,VALID,919.317,VALID,0,VALID,100,VALID,0,VALID,19.6766,VALID,152,VALID,0,
2009-04-19, 00:02:00,VALID,919.324,VALID,0,VALID,100,VALID,-0.0339617,VALID,19.6771,VALID,152,VALID,0,
2009-04-19, 00:03:01,VALID,919.324,VALID,0,VALID,100,VALID,-0.0169808,VALID,19.6768,VALID,152,VALID,0,
2009-04-19, 00:04:00,VALID,919.33,VALID,0,VALID,100,VALID,-0.0509425,VALID,19.6766,VALID,152,VALID,0,
2009-04-19, 00:05:00,VALID,919.327,VALID,0,VALID,100,VALID,-0.0339617,VALID,19.6669,VALID,152,VALID,0,
2009-04-19, 00:06:01,VALID,919.323,VALID,0,VALID,100,VALID,-0.0509425,VALID,19.6474,VALID,152,VALID,0,
2009-04-19, 00:07:00,VALID,919.313,VALID,0,VALID,100,VALID,0,VALID,19.6344,VALID,156,VALID,0,
2009-04-19, 00:08:00,VALID,919.298,VALID,0,VALID,100,VALID,0,VALID,19.6145,VALID,158,VALID,0,
2009-04-19, 00:09:00,VALID,919.295,VALID,0,VALID,100,VALID,-0.0339617,VALID,19.6117,VALID,158,VALID,0,
2009-04-19, 00:10:01,VALID,919.263,VALID,0,VALID,100,VALID,-0.0339617,VALID,19.6119,VALID,158,VALID,0,
2009-04-19, 00:11:01,VALID,919.255,VALID,0,VALID,100,VALID,-0.0169808,VALID,19.589,VALID,143,VALID,0,
2009-04-19, 00:12:00,VALID,919.24,VALID,0,VALID,100,VALID,0,VALID,19.5565,VALID,128,VALID,0,
2009-04-19, 00:13:01,VALID,919.235,VALID,0,VALID,100,VALID,0,VALID,19.5336,VALID,106,VALID,0.00111607,
2009-04-19, 00:14:01,VALID,919.244,VALID,0,VALID,100,VALID,0,VALID,19.5109,VALID,102,VALID,0,
2009-04-19, 00:15:01,VALID,919.255,VALID,0,VALID,100,VALID,0,VALID,19.4849,VALID,99,VALID,0.000887784,
2009-04-19, 00:16:01,VALID,919.262,VALID,0,VALID,100,VALID,0,VALID,19.4555,VALID,120,VALID,0.0584077,
2009-04-19, 00:17:01,VALID,919.274,VALID,0,VALID,100,VALID,-0.0169808,VALID,19.4784,VALID,138,VALID,0.0386905,
2009-04-19, 00:18:01,VALID,919.276,VALID,0,VALID,100,VALID,-0.0339617,VALID,19.4849,VALID,139,VALID,0.0012718,
2009-04-19, 00:19:01,VALID,919.278,VALID,0,VALID,100,VALID,-0.0169808,VALID,19.4819,VALID,135,VALID,0.00130208,
2009-04-19, 00:20:01,VALID,919.292,VALID,0,VALID,100,VALID,0,VALID,19.4852,VALID,132,VALID,0.0442073,
2009-04-19, 00:21:01,VALID,919.299,VALID,0,VALID,100,VALID,0,VALID,19.4922,VALID,131,VALID,0,
2009-04-19, 00:22:00,VALID,919.307,VALID,0,VALID,100,VALID,-0.0169808,VALID,19.4884,VALID,127,VALID,0,
2009-04-19, 00:23:00,VALID,919.317,VALID,0,VALID,100,VALID,0,VALID,19.4949,VALID,122,VALID,0,
2009-04-19, 00:24:00,VALID,919.32,VALID,0,VALID,100,VALID,-0.0509425,VALID,19.5111,VALID,130,VALID,0,
2009-04-19, 00:25:00,VALID,919.32,VALID,0,VALID,100,VALID,-0.0339617,VALID,19.5438,VALID,135,VALID,0,
2009-04-19, 00:26:00,VALID,919.319,VALID,0,VALID,100,VALID,0,VALID,19.5501,VALID,127,VALID,0,
2009-04-19, 00:27:00,VALID,919.313,VALID,0,VALID,100,VALID,-0.0339617,VALID,19.5598,VALID,126,VALID,0,
2009-04-19, 00:28:00,VALID,919.301,VALID,0,VALID,100,VALID,-0.0169808,VALID,19.5628,VALID,126,VALID,0,
2009-04-19, 00:29:00,VALID,919.283,VALID,0,VALID,100,VALID,-0.0169808,VALID,19.576,VALID,138,VALID,0,
2009-04-19, 00:30:00,VALID,919.252,VALID,0,VALID,100,VALID,-0.0169808,VALID,19.579,VALID,142,VALID,0,
2009-04-19, 00:31:00,VALID,919.231,VALID,0,VALID,100,VALID,-0.0339617,VALID,19.5987,VALID,145,VALID,0,
2009-04-19, 00:32:00,VALID,919.196,VALID,0,VALID,100,VALID,-0.0339617,VALID,19.6277,VALID,147,VALID,0,
2009-04-19, 00:33:00,VALID,919.164,VALID,0,VALID,100,VALID,-0.0169808,VALID,19.6539,VALID,145,VALID,0,
2009-04-19, 00:34:00,VALID,919.124,VALID,0,VALID,100,VALID,-0.0679233,VALID,19.6669,VALID,145,VALID,0,
2009-04-19, 00:35:00,VALID,919.091,VALID,0,VALID,100,VALID,-0.0169808,VALID,19.6893,VALID,145,VALID,0,
2009-04-19, 00:36:00,VALID,919.037,VALID,0,VALID,100,VALID,-0.0169808,VALID,19.7188,VALID,145,VALID,0,
2009-04-19, 00:37:00,VALID,918.997,VALID,0,VALID,100,VALID,-0.0169808,VALID,19.7185,VALID,145,VALID,0,
2009-04-19, 00:38:00,VALID,918.971,VALID,0,VALID,100,VALID,0,VALID,19.735,VALID,145,VALID,0,
2009-04-19, 00:39:00,VALID,918.947,VALID,0,VALID,100,VALID,-0.0169808,VALID,19.7382,VALID,145,VALID,0,
2009-04-19, 00:40:00,VALID,918.929,VALID,0,VALID,100,VALID,-0.0169808,VALID,19.7345,VALID,145,VALID,0,
2009-04-19, 00:41:00,VALID,918.917,VALID,0,VALID,100,VALID,-0.0169808,VALID,19.7285,VALID,145,VALID,0,
2009-04-19, 00:42:00,VALID,918.925,VALID,0,VALID,100,VALID,-0.0169808,VALID,19.7085,VALID,145,VALID,0,
2009-04-19, 00:43:00,VALID,918.928,VALID,0,VALID,100,VALID,0,VALID,19.6958,VALID,145,VALID,0,
2009-04-19, 00:44:00,VALID,918.924,VALID,0,VALID,100,VALID,0.0169808,VALID,19.6963,VALID,146,VALID,0,
2009-04-19, 00:45:00,VALID,918.925,VALID,0,VALID,100,VALID,-0.0169808,VALID,19.6798,VALID,142,VALID,0,
2009-04-19, 00:46:00,VALID,918.899,VALID,0,VALID,100,VALID,-0.0169808,VALID,19.6896,VALID,147,VALID,0,
2009-04-19, 00:47:00,VALID,918.873,VALID,0,VALID,100,VALID,0,VALID,19.6961,VALID,151,VALID,0,
2009-04-19, 00:48:00,VALID,918.843,VALID,0,VALID,100,VALID,0,VALID,19.6956,VALID,144,VALID,0,
2009-04-19, 00:49:00,VALID,918.809,VALID,0,VALID,100,VALID,0,VALID,19.7088,VALID,149,VALID,0,
2009-04-19, 00:50:00,VALID,918.771,VALID,0,VALID,100,VALID,0,VALID,19.7183,VALID,144,VALID,0,
2009-04-19, 00:51:00,VALID,918.733,VALID,0,VALID,100,VALID,0,VALID,19.735,VALID,146,VALID,0,
2009-04-19, 00:52:00,VALID,918.715,VALID,0,VALID,100,VALID,0,VALID,19.738,VALID,155,VALID,0,
2009-04-19, 00:53:00,VALID,918.675,VALID,0,VALID,100,VALID,-0.0169808,VALID,19.7318,VALID,155,VALID,0,
2009-04-19, 00:54:00,VALID,918.674,VALID,0,VALID,100,VALID,0,VALID,19.735,VALID,155,VALID,0,
2009-04-19, 00:55:00,VALID,918.66,VALID,0,VALID,100,VALID,0,VALID,19.7512,VALID,154,VALID,0,
2009-04-19, 00:56:00,VALID,918.66,VALID,0,VALID,100,VALID,0,VALID,19.7318,VALID,154,VALID,0,
2009-04-19, 00:57:00,VALID,918.65,VALID,0,VALID,100,VALID,0,VALID,19.7253,VALID,154,VALID,0,
2009-04-19, 00:58:00,VALID,918.638,VALID,0,VALID,100,VALID,-0.0169808,VALID,19.7188,VALID,154,VALID,0,
2009-04-19, 00:59:00,VALID,918.611,VALID,0,VALID,100,VALID,0,VALID,19.7285,VALID,154,VALID,0,
2009-04-19, 01:00:00,VALID,918.585,VALID,0,VALID,100,VALID,0,VALID,19.7285,VALID,154,VALID,0,
2009-04-19, 01:01:00,VALID,918.543,VALID,0,VALID,100,VALID,-0.0509425,VALID,19.7288,VALID,154,VALID,0,
2009-04-19, 01:02:00,VALID,918.52,VALID,0,VALID,100,VALID,-0.0339617,VALID,19.735,VALID,154,VALID,0,
2009-04-19, 01:03:00,VALID,918.499,VALID,0,VALID,100,VALID,-0.0339617,VALID,19.761,VALID,154,VALID,0,
2009-04-19, 01:04:00,VALID,918.471,VALID,0,VALID,100,VALID,-0.0169808,VALID,19.7772,VALID,154,VALID,0,
2009-04-19, 01:05:00,VALID,918.479,VALID,0,VALID,100,VALID,-0.0169808,VALID,19.7971,VALID,154,VALID,0,
2009-04-19, 01:06:00,VALID,918.48,VALID,0,VALID,100,VALID,-0.0509425,VALID,19.8064,VALID,154,VALID,0,
2009-04-19, 01:07:00,VALID,918.488,VALID,0,VALID,100,VALID,0,VALID,19.8161,VALID,154,VALID,0,
2009-04-19, 01:08:00,VALID,918.489,VALID,0,VALID,100,VALID,0,VALID,19.7772,VALID,146,VALID,0,
2009-04-19, 01:09:00,VALID,918.478,VALID,0,VALID,100,VALID,0,VALID,19.7577,VALID,123,VALID,0,
2009-04-19, 01:10:00,VALID,918.463,VALID,0,VALID,100,VALID,-0.101885,VALID,19.7385,VALID,128,VALID,0,
2009-04-19, 01:11:00,VALID,918.447,VALID,0,VALID,100,VALID,-0.0169808,VALID,19.7093,VALID,152,VALID,0,
2009-04-19, 01:12:00,VALID,918.408,VALID,0,VALID,100,VALID,-0.0339617,VALID,19.7223,VALID,175,VALID,0,
2009-04-19, 01:13:00,VALID,918.376,VALID,0,VALID,100,VALID,-0.0509425,VALID,19.722,VALID,172,VALID,0,
2009-04-19, 01:14:00,VALID,918.347,VALID,0,VALID,100,VALID,-0.0169808,VALID,19.7253,VALID,163,VALID,0.00109012,
2009-04-19, 01:15:00,VALID,918.334,VALID,0,VALID,100,VALID,-0.0169808,VALID,19.7285,VALID,143,VALID,0,
2009-04-19, 01:16:00,VALID,918.325,VALID,0,VALID,100,VALID,-0.0169808,VALID,19.7315,VALID,149,VALID,0,
2009-04-19, 01:17:00,VALID,918.315,VALID,0,VALID,100,VALID,-0.0339617,VALID,19.7185,VALID,146,VALID,0,
2009-04-19, 01:18:00,VALID,918.303,VALID,0,VALID,100,VALID,0,VALID,19.6928,VALID,138,VALID,0,
2009-04-19, 01:19:00,VALID,918.286,VALID,0,VALID,100,VALID,-0.0169808,VALID,19.6669,VALID,128,VALID,0,
2009-04-19, 01:20:00,VALID,918.28,VALID,0,VALID,100,VALID,0,VALID,19.6536,VALID,126,VALID,0,
2009-04-19, 01:21:00,VALID,918.268,VALID,0,VALID,100,VALID,-0.0339617,VALID,19.6377,VALID,129,VALID,0,
2009-04-19, 01:22:00,VALID,918.235,VALID,0,VALID,100,VALID,0,VALID,19.6441,VALID,129,VALID,0.053267,
2009-04-19, 01:23:00,VALID,918.225,VALID,0,VALID,100,VALID,-0.0339617,VALID,19.6374,VALID,124,VALID,0.0369665,
2009-04-19, 01:24:00,VALID,918.207,VALID,0,VALID,100,VALID,0,VALID,19.6471,VALID,135,VALID,0.067294,
2009-04-19, 01:25:00,VALID,918.186,VALID,0,VALID,100,VALID,-0.0849042,VALID,19.6571,VALID,134,VALID,0,
2009-04-19, 01:26:00,VALID,918.165,VALID,0,VALID,100,VALID,-0.0509425,VALID,19.6708,VALID,127,VALID,0,
2009-04-19, 01:27:00,VALID,918.164,VALID,0,VALID,100,VALID,-0.0169808,VALID,19.6644,VALID,119,VALID,0,
2009-04-19, 01:28:00,VALID,918.157,VALID,0,VALID,100,VALID,-0.0339617,VALID,19.6671,VALID,117,VALID,0,
2009-04-19, 01:29:00,VALID,918.159,VALID,0,VALID,100,VALID,-0.0679233,VALID,19.6636,VALID,126,VALID,0,
2009-04-19, 01:30:00,VALID,918.147,VALID,0,VALID,100,VALID,0,VALID,19.6509,VALID,130,VALID,0.061899,
2009-04-19, 01:31:00,VALID,918.146,VALID,0,VALID,100,VALID,-0.0679233,VALID,19.6416,VALID,141,VALID,0,
2009-04-19, 01:32:00,VALID,918.133,VALID,0,VALID,100,VALID,-0.0339617,VALID,19.6214,VALID,141,VALID,0.012173,
2009-04-19, 01:33:00,VALID,918.12,VALID,0,VALID,100,VALID,-0.0339617,VALID,19.5793,VALID,140,VALID,0.0515253,
2009-04-19, 01:34:00,VALID,918.114,VALID,0,VALID,100,VALID,0,VALID,19.5338,VALID,141,VALID,0.186357,
2009-04-19, 01:35:00,VALID,918.101,VALID,0,VALID,100,VALID,-0.0169808,VALID,19.4854,VALID,139,VALID,0.156795,
2009-04-19, 01:36:00,VALID,918.095,VALID,0,VALID,100,VALID,-0.0509425,VALID,19.4402,VALID,139,VALID,0.190168,
2009-04-19, 01:37:00,VALID,918.081,VALID,0,VALID,100,VALID,-0.0169808,VALID,19.4168,VALID,133,VALID,0.278472,
2009-04-19, 01:38:00,VALID,918.07,VALID,0,VALID,100,VALID,-0.0169808,VALID,19.4168,VALID,137,VALID,0.484012,
2009-04-19, 01:39:00,VALID,918.059,VALID,0,VALID,100,VALID,-0.0509425,VALID,19.4303,VALID,135,VALID,0.487827,
2009-04-19, 01:40:00,VALID,918.037,VALID,0,VALID,100,VALID,-0.0679233,VALID,19.4368,VALID,140,VALID,0.494318,
2009-04-19, 01:41:00,VALID,918.032,VALID,0,VALID,100,VALID,-0.0169808,VALID,19.4495,VALID,139,VALID,0.192224,
2009-04-19, 01:42:00,VALID,918.035,VALID,0,VALID,100,VALID,-0.0169808,VALID,19.4689,VALID,141,VALID,0.58194,
2009-04-19, 01:43:00,VALID,918.042,VALID,0,VALID,100,VALID,-0.0169808,VALID,19.4719,VALID,138,VALID,0.352431,
2009-04-19, 01:44:00,VALID,918.028,VALID,0,VALID,100,VALID,-0.0169808,VALID,19.4784,VALID,137,VALID,0.343006,
2009-04-19, 01:45:00,VALID,918.026,VALID,0,VALID,100,VALID,0,VALID,19.4917,VALID,141,VALID,0.25558,
2009-04-19, 01:46:00,VALID,918.022,VALID,0,VALID,100,VALID,0.0169808,VALID,19.4914,VALID,140,VALID,0.407522,
2009-04-19, 01:47:00,VALID,918.014,VALID,0,VALID,100,VALID,-0.0169808,VALID,19.5014,VALID,136,VALID,0.521341,
2009-04-19, 01:48:00,VALID,917.984,VALID,0,VALID,100,VALID,-0.0679233,VALID,19.5014,VALID,143,VALID,0.473828,
2009-04-19, 01:49:00,VALID,917.972,VALID,0,VALID,100,VALID,0,VALID,19.5241,VALID,163,VALID,0.601372,
2009-04-19, 01:50:00,VALID,917.956,VALID,0,VALID,100,VALID,0.0169808,VALID,19.5299,VALID,136,VALID,0.141183,
2009-04-19, 01:51:00,VALID,917.945,VALID,0,VALID,100,VALID,-0.0509425,VALID,19.5531,VALID,156,VALID,0.388368,
2009-04-19, 01:52:00,VALID,917.937,VALID,0,VALID,100,VALID,0,VALID,19.5693,VALID,149,VALID,0.241824,
2009-04-19, 01:53:00,VALID,917.922,VALID,0,VALID,100,VALID,0,VALID,19.5693,VALID,146,VALID,0.000173611,
2009-04-19, 01:54:00,VALID,917.921,VALID,0,VALID,100,VALID,0,VALID,19.5655,VALID,143,VALID,0.436133,
2009-04-19, 01:55:00,VALID,917.917,VALID,0,VALID,100,VALID,0,VALID,19.5655,VALID,156,VALID,0.0839844,
2009-04-19, 01:56:00,VALID,917.898,VALID,0,VALID,100,VALID,-0.0339617,VALID,19.572,VALID,151,VALID,0.206936,
2009-04-19, 01:57:00,VALID,917.896,VALID,0,VALID,100,VALID,-0.0339617,VALID,19.5823,VALID,161,VALID,0.167597,
2009-04-19, 01:58:00,VALID,917.894,VALID,0,VALID,100,VALID,0,VALID,19.5922,VALID,155,VALID,0,
2009-04-19, 01:59:00,VALID,917.89,VALID,0,VALID,100,VALID,0,VALID,19.5887,VALID,148,VALID,0,
2009-04-19, 02:00:00,VALID,917.881,VALID,0,VALID,100,VALID,-0.0339617,VALID,19.5922,VALID,152,VALID,0,
2009-04-19, 02:01:00,VALID,917.887,VALID,0,VALID,100,VALID,0,VALID,19.595,VALID,127,VALID,0,
2009-04-19, 02:02:00,VALID,917.866,VALID,0,VALID,100,VALID,-0.0339617,VALID,19.6015,VALID,135,VALID,0,
2009-04-19, 02:03:00,VALID,917.868,VALID,0,VALID,100,VALID,-0.0169808,VALID,19.6177,VALID,135,VALID,0,
2009-04-19, 02:04:00,VALID,917.851,VALID,0,VALID,100,VALID,-0.0169808,VALID,19.6374,VALID,141,VALID,0.000372024,
2009-04-19, 02:05:00,VALID,917.85,VALID,0,VALID,100,VALID,0,VALID,19.6307,VALID,120,VALID,0.0456597,
2009-04-19, 02:06:00,VALID,917.843,VALID,0,VALID,100,VALID,0,VALID,19.6309,VALID,92,VALID,0,
2009-04-19, 02:07:00,VALID,917.846,VALID,0,VALID,100,VALID,0,VALID,19.6214,VALID,85,VALID,0,
2009-04-19, 02:08:00,VALID,917.847,VALID,0,VALID,100,VALID,-0.0169808,VALID,19.6052,VALID,84,VALID,0,
2009-04-19, 02:09:00,VALID,917.857,VALID,0,VALID,100,VALID,0,VALID,19.5887,VALID,84,VALID,0,
2009-04-19, 02:10:00,VALID,917.862,VALID,0,VALID,100,VALID,0,VALID,19.5628,VALID,84,VALID,0,
2009-04-19, 02:11:00,VALID,917.855,VALID,0,VALID,100,VALID,-0.0169808,VALID,19.5303,VALID,91,VALID,0.00111607,
2009-04-19, 02:12:00,VALID,917.859,VALID,0,VALID,100,VALID,-0.0169808,VALID,19.5109,VALID,91,VALID,0,
2009-04-19, 02:13:00,VALID,917.855,VALID,0,VALID,100,VALID,0,VALID,19.4879,VALID,104,VALID,0,
2009-04-19, 02:14:00,VALID,917.858,VALID,0,VALID,100,VALID,-0.0169808,VALID,19.4819,VALID,106,VALID,0,
2009-04-19, 02:15:00,VALID,917.859,VALID,0,VALID,100,VALID,-0.0169808,VALID,19.4555,VALID,108,VALID,0,
2009-04-19, 02:16:00,VALID,917.853,VALID,0,VALID,100,VALID,0,VALID,19.4453,VALID,108,VALID,0,
2009-04-19, 02:17:00,VALID,917.852,VALID,0,VALID,100,VALID,0.0169808,VALID,19.4525,VALID,108,VALID,0,
2009-04-19, 02:18:00,VALID,917.841,VALID,0,VALID,100,VALID,0,VALID,19.4423,VALID,112,VALID,0,
2009-04-19, 02:19:00,VALID,917.835,VALID,0,VALID,100,VALID,-0.0339617,VALID,19.4462,VALID,114,VALID,0.00101902,
2009-04-19, 02:20:00,VALID,917.824,VALID,0,VALID,100,VALID,0,VALID,19.4395,VALID,117,VALID,0,
2009-04-19, 02:21:00,VALID,917.803,VALID,0,VALID,100,VALID,0,VALID,19.4393,VALID,116,VALID,0.102865,
2009-04-19, 02:22:00,VALID,917.79,VALID,0,VALID,100,VALID,0,VALID,19.433,VALID,122,VALID,0,
2009-04-19, 02:23:00,VALID,917.778,VALID,0,VALID,100,VALID,0,VALID,19.42,VALID,123,VALID,0,
2009-04-19, 02:24:00,VALID,917.78,VALID,0,VALID,100,VALID,0.0169808,VALID,19.3966,VALID,123,VALID,0,
2009-04-19, 02:25:00,VALID,917.778,VALID,0,VALID,100,VALID,0.0339617,VALID,19.4068,VALID,122,VALID,0,
2009-04-19, 02:26:00,VALID,917.782,VALID,0,VALID,100,VALID,0.0169808,VALID,19.3899,VALID,124,VALID,0,
2009-04-19, 02:27:00,VALID,917.787,VALID,0,VALID,100,VALID,0.0169808,VALID,19.4071,VALID,124,VALID,0,
2009-04-19, 02:28:00,VALID,917.787,VALID,0,VALID,100,VALID,0.0339617,VALID,19.3903,VALID,120,VALID,0,
2009-04-19, 02:29:00,VALID,917.791,VALID,0,VALID,100,VALID,0.0339617,VALID,19.3903,VALID,125,VALID,0,
2009-04-19, 02:30:00,VALID,917.778,VALID,0,VALID,100,VALID,0,VALID,19.3843,VALID,130,VALID,0,
2009-04-19, 02:31:00,VALID,917.775,VALID,0,VALID,100,VALID,0.0169808,VALID,19.3649,VALID,133,VALID,0,
2009-04-19, 02:32:00,VALID,917.766,VALID,0,VALID,100,VALID,-0.0169808,VALID,19.3487,VALID,132,VALID,0,
2009-04-19, 02:33:00,VALID,917.763,VALID,0,VALID,100,VALID,0,VALID,19.3357,VALID,129,VALID,0,
2009-04-19, 02:34:00,VALID,917.757,VALID,0,VALID,100,VALID,0.0169808,VALID,19.309,VALID,137,VALID,0.104403,
2009-04-19, 02:35:00,VALID,917.757,VALID,0,VALID,100,VALID,0.0169808,VALID,19.3422,VALID,133,VALID,0.0729167,
2009-04-19, 02:36:00,VALID,917.748,VALID,0,VALID,100,VALID,0,VALID,19.3517,VALID,124,VALID,0,
2009-04-19, 02:37:00,VALID,917.759,VALID,0,VALID,100,VALID,0,VALID,19.335,VALID,117,VALID,0,
2009-04-19, 02:38:00,VALID,917.756,VALID,0,VALID,100,VALID,0,VALID,19.3352,VALID,124,VALID,0,
2009-04-19, 02:39:00,VALID,917.747,VALID,0,VALID,100,VALID,-0.0339617,VALID,19.3322,VALID,122,VALID,0,
2009-04-19, 02:40:00,VALID,917.766,VALID,0,VALID,100,VALID,0.0169808,VALID,19.3157,VALID,121,VALID,0,
2009-04-19, 02:41:00,VALID,917.754,VALID,0,VALID,100,VALID,-0.0169808,VALID,19.3127,VALID,104,VALID,0,
2009-04-19, 02:42:00,VALID,917.757,VALID,0,VALID,100,VALID,-0.0169808,VALID,19.3067,VALID,121,VALID,0,
2009-04-19, 02:43:00,VALID,917.749,VALID,0,VALID,100,VALID,0.0169808,VALID,19.303,VALID,121,VALID,0,
2009-04-19, 02:44:00,VALID,917.757,VALID,0,VALID,100,VALID,0,VALID,19.2963,VALID,104,VALID,0.108613,
2009-04-19, 02:45:00,VALID,917.753,VALID,0,VALID,100,VALID,0,VALID,19.287,VALID,97,VALID,0.138445,
2009-04-19, 02:46:00,VALID,917.739,VALID,0,VALID,100,VALID,0,VALID,19.2611,VALID,101,VALID,0.0370164,
2009-04-19, 02:47:00,VALID,917.723,VALID,0,VALID,100,VALID,-0.0169808,VALID,19.2384,VALID,106,VALID,0.0555959,
2009-04-19, 02:48:00,VALID,917.715,VALID,0,VALID,100,VALID,0,VALID,19.2149,VALID,121,VALID,0.117188,
2009-04-19, 02:49:00,VALID,917.695,VALID,0,VALID,100,VALID,0,VALID,19.2082,VALID,117,VALID,0.0130208,
2009-04-19, 02:50:00,VALID,917.685,VALID,0,VALID,100,VALID,0.0169808,VALID,19.202,VALID,120,VALID,0.204241,
2009-04-19, 02:51:00,VALID,917.67,VALID,0,VALID,100,VALID,0,VALID,19.2059,VALID,121,VALID,0.0085747,
2009-04-19, 02:52:00,VALID,917.651,VALID,0,VALID,100,VALID,-0.0679233,VALID,19.1932,VALID,126,VALID,0.145894,
2009-04-19, 02:53:00,VALID,917.644,VALID,0,VALID,100,VALID,-0.0509425,VALID,19.1997,VALID,101,VALID,0.145419,
2009-04-19, 02:54:00,VALID,917.654,VALID,0,VALID,100,VALID,-0.0679233,VALID,19.1867,VALID,104,VALID,0,
2009-04-19, 02:55:00,VALID,917.646,VALID,0,VALID,100,VALID,-0.0679233,VALID,19.1837,VALID,118,VALID,0.184048,
2009-04-19, 02:56:00,VALID,917.65,VALID,0,VALID,100,VALID,0,VALID,19.1802,VALID,113,VALID,0.251334,
2009-04-19, 02:57:00,VALID,917.64,VALID,0,VALID,100,VALID,-0.101885,VALID,19.1777,VALID,120,VALID,0.0388889,
2009-04-19, 02:58:00,VALID,917.639,VALID,0,VALID,100,VALID,-0.0679233,VALID,19.1645,VALID,117,VALID,0.00799419,
2009-04-19, 02:59:00,VALID,917.634,VALID,0,VALID,100,VALID,-0.101885,VALID,19.1522,VALID,110,VALID,0.0450994,
2009-04-19, 03:00:00,VALID,917.634,VALID,0,VALID,100,VALID,-0.0849042,VALID,19.1255,VALID,103,VALID,0,
2009-04-19, 03:01:00,VALID,917.62,VALID,0,VALID,100,VALID,-0.101885,VALID,19.1191,VALID,101,VALID,0.00121528,
2009-04-19, 03:02:00,VALID,917.614,VALID,0,VALID,100,VALID,-0.0679233,VALID,19.1121,VALID,95,VALID,0,
2009-04-19, 03:03:00,VALID,917.599,VALID,0,VALID,100,VALID,-0.101885,VALID,19.0996,VALID,93,VALID,0.0773237,
2009-04-19, 03:04:00,VALID,917.602,VALID,0,VALID,100,VALID,-0.0679233,VALID,19.0926,VALID,105,VALID,0.133003,
2009-04-19, 03:05:00,VALID,917.59,VALID,0,VALID,100,VALID,-0.101885,VALID,19.0926,VALID,93,VALID,0.00218023,
2009-04-19, 03:06:00,VALID,917.597,VALID,0,VALID,100,VALID,-0.0849042,VALID,19.1036,VALID,109,VALID,0,
2009-04-19, 03:07:00,VALID,917.604,VALID,0,VALID,100,VALID,0.0339617,VALID,19.0814,VALID,119,VALID,0.00136719,
2009-04-19, 03:08:00,VALID,917.609,VALID,0,VALID,100,VALID,0.0679233,VALID,19.1111,VALID,115,VALID,0,
2009-04-19, 03:09:00,VALID,917.603,VALID,0,VALID,100,VALID,0.0169808,VALID,19.1014,VALID,115,VALID,0.115945,
2009-04-19, 03:10:00,VALID,917.597,VALID,0,VALID,100,VALID,0.0509425,VALID,19.1209,VALID,104,VALID,0.0230978,
2009-04-19, 03:11:00,VALID,917.581,VALID,0,VALID,100,VALID,0.0169808,VALID,19.1239,VALID,99,VALID,0.0508721,
2009-04-19, 03:12:00,VALID,917.574,VALID,0,VALID,100,VALID,-0.0169808,VALID,19.1174,VALID,115,VALID,0,
2009-04-19, 03:13:00,VALID,917.557,VALID,0,VALID,100,VALID,0,VALID,19.1271,VALID,116,VALID,0,
2009-04-19, 03:14:00,VALID,917.552,VALID,0,VALID,100,VALID,0.0169808,VALID,19.1239,VALID,126,VALID,0,
2009-04-19, 03:15:00,VALID,917.55,VALID,0,VALID,100,VALID,0.0509425,VALID,19.1209,VALID,134,VALID,0.108232,
2009-04-19, 03:16:00,VALID,917.544,VALID,0,VALID,100,VALID,0.0339617,VALID,19.0944,VALID,134,VALID,0.0065407,
2009-04-19, 03:17:00,VALID,917.547,VALID,0,VALID,100,VALID,0.0509425,VALID,19.0782,VALID,138,VALID,0.0539435,
2009-04-19, 03:18:00,VALID,917.525,VALID,0,VALID,100,VALID,0,VALID,19.0655,VALID,135,VALID,0.0998476,
2009-04-19, 03:19:00,VALID,917.546,VALID,0,VALID,100,VALID,0,VALID,19.0659,VALID,134,VALID,0,
2009-04-19, 03:20:00,VALID,917.542,VALID,0,VALID,100,VALID,0.0169808,VALID,19.0757,VALID,145,VALID,0.0926067,
2009-04-19, 03:21:00,VALID,917.552,VALID,0,VALID,100,VALID,0.0169808,VALID,19.0852,VALID,145,VALID,0.171875,
2009-04-19, 03:22:00,VALID,917.548,VALID,0,VALID,100,VALID,-0.101885,VALID,19.0998,VALID,143,VALID,0.158249,
2009-04-19, 03:23:00,VALID,917.552,VALID,0,VALID,100,VALID,-0.0849042,VALID,19.1096,VALID,138,VALID,0.298611,
2009-04-19, 03:24:00,VALID,917.551,VALID,0,VALID,100,VALID,-0.0849042,VALID,19.1388,VALID,145,VALID,0.0840774,
2009-04-19, 03:25:00,VALID,917.553,VALID,0,VALID,100,VALID,-0.101885,VALID,19.1445,VALID,134,VALID,0.249814,
2009-04-19, 03:26:00,VALID,917.554,VALID,0,VALID,100,VALID,-0.0679233,VALID,19.1316,VALID,137,VALID,0.399528,
2009-04-19, 03:27:00,VALID,917.548,VALID,0,VALID,100,VALID,-0.0849042,VALID,19.1415,VALID,134,VALID,0.109947,
2009-04-19, 03:28:00,VALID,917.535,VALID,0,VALID,100,VALID,-0.0849042,VALID,19.1253,VALID,130,VALID,0.487723,
2009-04-19, 03:29:00,VALID,917.536,VALID,0,VALID,100,VALID,-0.0849042,VALID,19.1448,VALID,133,VALID,0.708394,
2009-04-19, 03:30:00,VALID,917.542,VALID,0,VALID,100,VALID,-0.101885,VALID,19.171,VALID,133,VALID,0.468924,
2009-04-19, 03:31:00,VALID,917.537,VALID,0,VALID,100,VALID,-0.101885,VALID,19.1775,VALID,130,VALID,0.348772,
2009-04-19, 03:32:00,VALID,917.541,VALID,0,VALID,100,VALID,-0.101885,VALID,19.1842,VALID,131,VALID,0.397104,
2009-04-19, 03:33:00,VALID,917.548,VALID,0,VALID,100,VALID,-0.0509425,VALID,19.1672,VALID,137,VALID,0.494665,
2009-04-19, 03:34:00,VALID,917.546,VALID,0,VALID,100,VALID,-0.0849042,VALID,19.1575,VALID,133,VALID,0.470833,
2009-04-19, 03:35:00,VALID,917.531,VALID,0,VALID,100,VALID,-0.0849042,VALID,19.1577,VALID,133,VALID,0.413885,
2009-04-19, 03:36:00,VALID,917.542,VALID,0,VALID,100,VALID,-0.0849042,VALID,19.1348,VALID,136,VALID,0.185014,
2009-04-19, 03:37:00,VALID,917.524,VALID,0,VALID,100,VALID,-0.0509425,VALID,19.1251,VALID,135,VALID,0.346354,
2009-04-19, 03:38:00,VALID,917.51,VALID,0,VALID,100,VALID,-0.101885,VALID,19.1121,VALID,134,VALID,0.261819,
2009-04-19, 03:39:00,VALID,917.5,VALID,0,VALID,99.9903,VALID,-0.0679233,VALID,19.1024,VALID,131,VALID,0.424107,
2009-04-19, 03:40:00,VALID,917.491,VALID,0,VALID,99.8222,VALID,-0.0679233,VALID,19.1026,VALID,132,VALID,0.143429,
2009-04-19, 03:41:00,VALID,917.486,VALID,0,VALID,99.6086,VALID,-0.101885,VALID,19.0831,VALID,135,VALID,0.183203,
2009-04-19, 03:42:00,VALID,917.472,VALID,0,VALID,99.5107,VALID,-0.101885,VALID,19.0866,VALID,132,VALID,0.0592014,
2009-04-19, 03:43:00,VALID,917.472,VALID,0,VALID,99.2958,VALID,-0.101885,VALID,19.0831,VALID,131,VALID,0.118118,
2009-04-19, 03:44:00,VALID,917.454,VALID,0,VALID,99.1839,VALID,-0.101885,VALID,19.0933,VALID,128,VALID,0,
2009-04-19, 03:45:00,VALID,917.443,VALID,0,VALID,99.0122,VALID,-0.118866,VALID,19.0938,VALID,132,VALID,0.214334,
2009-04-19, 03:46:00,VALID,917.436,VALID,0,VALID,98.8227,VALID,-0.101885,VALID,19.0801,VALID,126,VALID,0.208333,
2009-04-19, 03:47:00,VALID,917.43,VALID,0,VALID,98.6943,VALID,-0.0849042,VALID,19.0702,VALID,121,VALID,0.198289,